Regional Weather Roundup
Issued by NWS

Home | Current Version | Previous Version | Graphics & Text | Print | Product List | Glossary On
Versions: 1 2 3 4 5 6 7 8 9 10 11 12 13 14 15 16 17 18 19 20 21 22 23 24 25 26 27 28 29 30 31 32 33 34 35 36 37 38 39 40 41 42 43 44 45 46 47 48 49 50
000
ASUS43 KTOP 250808
RWRKS

WEATHER ROUNDUP FOR KANSAS
NATIONAL WEATHER SERVICE GOODLAND KS
300 AM CDT TUE APR 25 2017

NOTE:  "FAIR" INDICATES FEW OR NO CLOUDS BELOW 12,000 FEET WITH NO
SIGNIFICANT WEATHER AND/OR OBSTRUCTIONS TO VISIBILITY.

KSZ001>006-013>018-027>032-041>047-250900-
NORTHWEST KANSAS

CITY           SKY/WX    TMP DP  RH WIND       PRES   REMARKS
GOODLAND       CLOUDY    50  41  71 NE17      29.44F
HAYS           MOCLDY    61  50  67 SE13      29.41F
HILL CITY      CLOUDY    59  45  59 NE14      29.45F
RUSSELL        CLOUDY    59  51  75 SE7       29.41F
$$

KSZ061>065-074>080-084>089-250900-
SOUTHWEST KANSAS

CITY           SKY/WX    TMP DP  RH WIND       PRES   REMARKS
DODGE CITY     CLEAR     54  50  86 SE10      29.37F
ELKHART          N/A     54  43  67 W6          N/A
GARDEN CITY    MOCLDY    53  48  83 E8        29.38F
GREAT BEND     CLOUDY    61  49  64 SE15      29.41F
PRATT          CLOUDY    56  47  70 SE14G20   29.38F
$$

KSZ066>073-081>083-090>101-250900-
SOUTHEAST KANSAS

CITY           SKY/WX    TMP DP  RH WIND       PRES   REMARKS
CHANUTE        CLOUDY    60  47  61 SE13      29.55F
COFFEYVILLE    CLEAR     57  47  69 SE8       29.56F
HUTCHINSON     PTCLDY    60  49  66 SE17      29.41F
MEDICINE LODGE   N/A     58  48  69 SE13      29.38F
NEWTON         MOCLDY    59  49  69 SE18      29.46F
PARSONS        PTCLDY    60  46  59 SE6       29.56F
WICHITA INTL   MOCLDY    61  49  64 SE16      29.43F
WICHITA JABRA  MOCLDY    60  50  69 SE16G23   29.45F
WICHITA MCCONL CLOUDY    61  49  63 S17G24    29.43F
WINFIELD       CLOUDY    60  49  66 SE17G23   29.46F
$$

KSZ007>012-019>026-033>040-048>060-102>105-250900-
NORTHEAST KANSAS

CITY           SKY/WX    TMP DP  RH WIND       PRES   REMARKS
CONCORDIA      CLOUDY    57  53  86 N6        29.48F
EMPORIA        CLOUDY    60  49  66 S16       29.51F
LAWRENCE       CLOUDY    62  48  60 SE9       29.54F
MANHATTAN      CLOUDY    64  48  56 S10G17    29.47F
MARYSVILLE     CLOUDY    55  50  82 CALM      29.47F
OLATHE IND     CLOUDY    60  46  59 S12       29.56F
OLATHE EXE     CLOUDY    60  46  59 S9        29.56F
SALINA         LGT RAIN  63  50  62 SE13      29.43F
TOPEKA BILLARD CLOUDY    62  49  62 SE9       29.50F
TOPEKA FORBES  CLOUDY    63  48  58 S10       29.50F
$$




USA.gov is the U.S. government's official web portal to all federal, state and local government web resources and services.